Location: Unspecified
(44.0704°N, 88.6889°W)
Time: 14:02:00
(UTC+02:00)

Vanguard 1 - Visible Passes

Search period start: 20 June 2019 00:00
Search period end: 30 June 2019 00:00
Orbit: 654 x 3829 km, 34.2° (Epoch: 19 June)

Date Brightness Start Highest point End Pass type
(mag) Time Alt. Az. Time Alt. Az. Time Alt. Az.
20 Jun 12.9 09:14:08 21° S 09:20:40 26° SSE 09:30:40 10° ESE visible
20 Jun 12.0 11:28:15 10° SW 11:43:12 43° S 11:51:42 10° E visible
21 Jun 13.5 07:20:22 13° SE 07:20:22 13° SE 07:25:21 10° ESE visible
21 Jun 12.7 09:32:59 22° SSW 09:41:48 32° SSE 09:52:18 10° E visible
22 Jun 13.3 07:39:07 19° SE 07:39:46 19° SE 07:49:45 10° ESE visible
22 Jun 12.5 09:51:43 21° SSW 10:02:56 38° SSE 10:13:37 10° E visible
23 Jun 13.1 07:57:42 24° SSE 08:00:50 25° SE 08:12:25 10° E visible
23 Jun 12.4 10:10:17 18° SW 10:24:05 44° SSE 10:34:46 10° E visible
24 Jun 13.0 08:16:05 27° S 08:21:54 31° SSE 08:34:21 10° E visible
24 Jun 12.2 10:28:39 13° SW 10:45:13 49° SSE 10:55:47 10° E visible
25 Jun 13.5 06:21:38 15° SE 06:21:38 15° SE 06:29:17 10° ESE visible
25 Jun 12.8 08:34:11 27° SSW 08:43:01 37° SSE 08:55:56 10° E visible
25 Jun 12.1 10:48:05 10° WSW 11:06:22 53° S 11:16:44 10° E visible
26 Jun 13.3 06:39:23 22° SE 06:40:32 22° SE 06:52:59 10° E visible
26 Jun 12.6 08:51:52 24° SSW 09:04:10 43° SSE 09:17:14 10° E visible
26 Jun 12.1 11:09:21 10° WSW 11:27:29 55° S 11:37:38 10° ESE visible
27 Jun 13.2 06:56:25 26° SSE 07:01:29 28° SE 07:15:28 10° E visible
27 Jun 12.5 09:08:49 17° SW 09:25:20 49° SSE 09:38:24 10° E visible
27 Jun 12.0 11:30:45 10° WSW 11:48:34 56° S 11:58:27 10° ESE visible
28 Jun 13.6 04:59:20 12° SE 04:59:25 12° SE 05:05:23 10° ESE visible
28 Jun 13.0 07:03:18 10° SSW 07:22:28 34° SSE 07:37:22 10° E visible
28 Jun 12.4 09:25:42 10° SW 09:46:31 53° SSE 09:59:27 10° E visible
29 Jun 13.5 05:07:34 10° SSE 05:20:06 18° SE 05:31:45 10° E visible
29 Jun 12.9 07:23:05 10° SSW 07:43:32 41° SSE 07:58:56 10° E visible
29 Jun 12.3 09:46:47 10° WSW 10:07:45 57° S 10:20:26 10° E visible
